Regional Weather Roundup
Issued by NWS

Home | Current Version | Previous Version | Text Only | Print | Product List | Glossary On
Versions: 1 2 3 4 5 6 7 8 9 10 11 12 13 14 15 16 17 18 19 20 21 22 23 24 25 26 27 28 29 30 31 32 33 34 35 36 37 38 39 40 41 42 43 44 45 46 47 48 49
000
ASUS42 KKEY 252010
RWRKEY

FLORIDA REGIONAL WEATHER ROUNDUP FOR THE FLORIDA KEYS
NATIONAL WEATHER SERVICE KEY WEST FLORIDA
300 PM EST THU DEC 25 2014

...SOUTH FLORIDA AND THE KEYS...

CITY           SKY/WX    TMP DP  RH WIND       PRES   REMARKS
FORT MYERS     MOSUNNY   72  53  51 NE12G21   30.14S
SW REGIONAL AP SUNNY     71  52  50 NE13      30.15S
NAPLES         SUNNY     73  56  54 NE14      30.13F
MIAMI          PTSUNNY   72  60  66 N9G20     30.13R
WEST KENDALL   CLOUDY    73  62  68 NE16      30.12S
HOMESTEAD      CLOUDY    73  63  69 N12       30.11F
MARATHON       CLOUDY    74  66  76 N10       30.10S
BOCA CHICA NAS LGT RAIN  73  63  70 N18       30.11F
KEY WEST INTL  MOSUNNY   72  64  76 N15G23    30.11F

...INTERNATIONAL WEATHER...

CITY           SKY/WX    TMP DP  RH WIND       PRES   REMARKS
NASSAU BAHAMAS NOT AVBL
CANCUN MEXICO  CLOUDY    77  70  78 N7        30.07F
COZUMEL MEXICO CLOUDY    73  68  83 N8        30.07F

ADJACENT COASTAL WATERS...

STATION/POSITION TIME  SKY/WX   TEMP    WIND        PRES    WAVE
                                AIR SEA DIR/SP/G            HT/PER
                 (UTC)          (F)     (DEG/KT/KT) (MB)    (FT/S)
PULASKI SHOAL LI 1900            70      40/ 18/ 19 1019.9F
SAND KEY         1936            70      10/ 20/ 22 1019.5F
SOMBRERO KEY     2000            72     360/ 16/ 17 1019.7F
LONG KEY         1900            72 75   30/ 15/ 18 1019.9F
MOLASSES REEF    2000            71 78   30/ 18/ 19 1018.9F
FOWEY ROCKS      NOT AVBL
Buoy 42080       NOT AVBL

$$



USA.gov is the U.S. government's official web portal to all federal, state and local government web resources and services.